Weather History for Corsicana, TX

Change the Weather History Date:

Sunday, February 9, 2014

  Actual Average (KACT) Record (KACT)
Temperature  
Mean Temperature 49 °F 50 °F  
Max Temperature 59 °F 61 °F 89 °F (1960)
Min Temperature 39 °F 38 °F 15 °F (1936)
Degree Days  
Heating Degree Days 16 16  
Month to date heating degree days 147  
Since 1 July heating degree days 1555  
Cooling Degree Days 0 0  
Month to date cooling degree days 0  
Year to date cooling degree days 3  
Moisture  
Dew Point 42 °F    
Average Humidity 85    
Maximum Humidity 97    
Minimum Humidity 58    
Precipitation  
Precipitation 0.00 in 0.09 in 1.55 in (1935)
Month to date precipitation 0.74  
Year to date precipitation 2.86  
Snow  
Snow 0.00 in 0.00 in 0.20 in (1978)
Month to date snowfall 0.1  
Since 1 July snowfall 0.5  
Snow Depth -    
Sea Level Pressure  
Sea Level Pressure 30.08 in    
Wind  
Wind Speed 8 mph (ESE)    
Max Wind Speed 12 mph    
Max Gust Speed -    
Visibility 4 miles    
Events      
T = Trace of Precipitation, MM = Missing Value Source: NWS Daily Summary

Daily Weather History Graph

Daily Weather History Graph

Search for Another Location

Airport:

Trip Planner

Search our weather history database for the weather conditions in past years. The results will help you decide how hot, cold, wet, or windy it might be!

Date:

Astronomy

Feb. 09, 2014 Rise Set
Actual Time 7:13 AM CST 6:06 PM CST
Civil Twilight 6:47 AM CST 6:32 PM CST
Nautical Twilight 6:19 AM CST 7:01 PM CST
Astronomical Twilight 5:50 AM CST 7:29 PM CST
Moon 1:53 PM CST (2/9) 3:13 AM CST (2/9)
Length of Visible Light 11h 44m
Length of Day
10h 53m
Waxing Gibbous, 77% of the Moon is Illuminated
Feb 9
Waxing Gibbous
Feb 14
Full
Feb 22
Last Quarter
Mar 1
New
Mar 8
First Quarter

Hourly Weather History & Observations

Time (CST) Temp. Windchill Dew Point Humidity Pressure Visibility Wind Dir Wind Speed Gust Speed Precip Events Conditions
12:30 AM 39.9 °F 34.5 °F 39.0 °F 97% 30.07 in 4.0 mi South 8.1 mph - N/A   Scattered Clouds
12:40 AM 42.1 °F 36.6 °F 39.9 °F 92% 30.07 in 4.0 mi South 9.2 mph - N/A   Mostly Cloudy
12:53 AM 42.1 °F 35.7 °F 41.0 °F 96% 30.07 in 4.0 mi South 11.5 mph - N/A   Overcast
1:53 AM 43.0 °F 36.8 °F 41.0 °F 93% 30.07 in 4.0 mi South 11.5 mph - N/A   Overcast
2:53 AM 44.1 °F 39.0 °F 42.1 °F 93% 30.06 in 4.0 mi South 9.2 mph - N/A   Overcast
3:53 AM 44.1 °F 39.5 °F 42.1 °F 93% 30.05 in 4.0 mi South 8.1 mph - N/A   Overcast
4:53 AM 43.0 °F 38.8 °F 42.1 °F 97% 30.06 in 3.0 mi South 6.9 mph - N/A   Overcast
5:53 AM 43.0 °F 38.2 °F 42.1 °F 97% 30.06 in 3.0 mi South 8.1 mph - N/A   Overcast
6:53 AM 43.0 °F 39.5 °F 41.0 °F 93% 30.08 in 3.0 mi South 5.8 mph - N/A   Overcast
7:19 AM 43.0 °F 38.2 °F 41.0 °F 93% 30.08 in 3.0 mi South 8.1 mph - N/A   Overcast
7:29 AM 43.0 °F 39.5 °F 41.0 °F 93% 30.08 in 2.5 mi South 5.8 mph - N/A   Overcast
7:53 AM 43.0 °F 40.3 °F 42.1 °F 97% 30.10 in 2.5 mi SSE 4.6 mph - N/A   Overcast
8:29 AM 44.1 °F 40.8 °F 42.1 °F 93% 30.10 in 2.0 mi SSE 5.8 mph - N/A   Overcast
8:53 AM 44.1 °F 41.5 °F 42.1 °F 93% 30.12 in 2.5 mi South 4.6 mph - N/A   Overcast
9:53 AM 45.0 °F 40.1 °F 42.1 °F 90% 30.09 in 2.5 mi SSE 9.2 mph - N/A   Overcast
10:09 AM 46.0 °F 41.9 °F 42.1 °F 86% 30.10 in 3.0 mi South 8.1 mph - N/A   Overcast
10:53 AM 46.0 °F 42.5 °F 42.1 °F 86% 30.12 in 4.0 mi SSE 6.9 mph - N/A   Overcast
11:48 AM 48.2 °F - 42.8 °F 82% 30.12 in 4.0 mi Calm Calm - N/A   Haze
11:53 AM 48.9 °F - 42.1 °F 77% 30.12 in 4.0 mi Variable 4.6 mph - N/A   Haze
12:53 PM 51.1 °F - 43.0 °F 74% 30.07 in 5.0 mi East 6.9 mph - N/A   Haze
1:18 PM 52.0 °F - 43.0 °F 71% 30.05 in 5.0 mi Variable 4.6 mph - N/A   Haze
1:53 PM 55.0 °F - 43.0 °F 64% 30.03 in 5.0 mi Calm Calm - N/A   Haze
2:53 PM 59.0 °F - 44.1 °F 58% 30.00 in 6.0 mi Variable 5.8 mph - N/A   Haze
3:53 PM 59.0 °F - 45.0 °F 60% 30.01 in 6.0 mi NNE 5.8 mph - N/A   Haze
4:53 PM 57.0 °F - 45.0 °F 64% 30.02 in 6.0 mi North 9.2 mph - N/A   Haze
5:53 PM 50.0 °F - 43.0 °F 77% 30.05 in 5.0 mi North 11.5 mph - N/A   Haze
6:53 PM 48.0 °F - 42.1 °F 80% 30.07 in 6.0 mi North 10.4 mph - N/A   Haze
7:53 PM 46.0 °F 40.6 °F 41.0 °F 83% 30.08 in 5.0 mi NNE 11.5 mph - N/A   Haze
8:53 PM 45.0 °F 40.1 °F 41.0 °F 86% 30.09 in 5.0 mi NNE 9.2 mph - N/A   Mostly Cloudy
9:00 PM 45.0 °F 39.7 °F 41.0 °F 86% 30.09 in 5.0 mi NNE 10.4 mph - N/A   Mostly Cloudy
9:24 PM 45.0 °F 39.3 °F 41.0 °F 86% 30.10 in 5.0 mi NNE 11.5 mph - N/A   Overcast
9:48 PM 44.6 °F 38.8 °F 41.0 °F 87% 30.11 in 5.0 mi NNE 11.5 mph - N/A   Overcast
9:53 PM 45.0 °F 39.7 °F 41.0 °F 86% 30.11 in 5.0 mi NNE 10.4 mph - N/A   Overcast
10:53 PM 46.0 °F 41.9 °F 42.1 °F 86% 30.11 in 5.0 mi NNE 8.1 mph - N/A   Overcast
11:21 PM 46.0 °F 42.5 °F 42.1 °F 86% 30.10 in 6.0 mi NNE 6.9 mph - N/A   Overcast
11:42 PM 45.0 °F 40.1 °F 42.1 °F 90% 30.10 in 6.0 mi NNE 9.2 mph - N/A   Overcast
11:53 PM 45.0 °F 40.1 °F 41.0 °F 86% 30.11 in 6.0 mi North 9.2 mph - N/A   Overcast